Oakes, ND

9:06 AM CST on November 20, 2019 (GMT -0600)
Oakes

Weather History for K2D5 - September, 2019

Change the Weather History Date:

Thursday, September 26, 2019

  Actual Average (KP67) Record (KP67)
Temperature  
Mean Temperature 53 °F -  
Max Temperature 64 °F 66 °F 82 °F (1997)
Min Temperature 42 °F 42 °F 46 °F (1996)
Degree Days  
Heating Degree Days 12    
Growing Degree Days 3 (Base 50)    
Moisture  
Dew Point 47 °F    
Average Humidity 82    
Maximum Humidity 100    
Minimum Humidity 56    
Precipitation  
Precipitation 0.00 in - - ()
Sea Level Pressure  
Sea Level Pressure 29.71 in    
Wind  
Wind Speed 7 mph (SW)    
Max Wind Speed 15 mph    
Max Gust Speed 22 mph    
Visibility 10 miles    
Events      
Averages and records for this station are not official NWS values.
T = Trace of Precipitation, MM = Missing Value Source: NWS Daily Summary

Daily Weather History Graph

Daily Weather History Graph

Search for Another Location

Airport or City:

Astronomy

Sep. 26, 2019 Rise Set
Actual Time 7:24 AM CDT 7:22 PM CDT
Civil Twilight 6:54 AM CDT 7:52 PM CDT
Nautical Twilight 6:19 AM CDT 8:27 PM CDT
Astronomical Twilight 5:43 AM CDT 9:02 PM CDT
Moon 4:18 AM CDT (9/26) 6:47 PM CDT (9/26)
Length of Visible Light 12h 57m
Length of Day
11h 58m
Waning Crescent, 6% of the Moon is Illuminated
Sep 26
Waning Crescent
Sep 28
New
Oct 5
First Quarter
Oct 13
Full
Oct 21
Last Quarter

Hourly Weather History & Observations

Time (CDT) Temp. Windchill Dew Point Humidity Pressure Visibility Wind Dir Wind Speed Gust Speed Precip Events Conditions
12:15 AM 46.4 °F 42.9 °F 44.6 °F 93% 29.92 in 10.0 mi West 6.9 mph - N/A   Clear
12:35 AM 44.6 °F 41.4 °F 44.6 °F 100% 29.92 in 10.0 mi West 5.8 mph - N/A   Clear
12:55 AM 46.4 °F 44.3 °F 44.6 °F 93% 29.92 in 10.0 mi WSW 4.6 mph - N/A   Clear
1:15 AM 44.6 °F 40.7 °F 44.6 °F 100% 29.92 in 10.0 mi WSW 6.9 mph - N/A   Clear
1:35 AM 44.6 °F 41.4 °F 44.6 °F 100% 29.92 in 10.0 mi WSW 5.8 mph - N/A   Clear
1:55 AM 44.6 °F 41.4 °F 44.6 °F 100% 29.91 in 10.0 mi WSW 5.8 mph - N/A   Clear
2:15 AM 44.6 °F 41.4 °F 44.6 °F 100% 29.91 in 10.0 mi WSW 5.8 mph - N/A   Clear
2:35 AM 44.6 °F 40.2 °F 44.6 °F 100% 29.91 in 10.0 mi West 8.1 mph - N/A   Clear
2:55 AM 44.6 °F 40.2 °F 44.6 °F 100% 29.91 in 10.0 mi West 8.1 mph - N/A   Clear
3:15 AM 44.6 °F 40.2 °F 44.6 °F 100% 29.90 in 10.0 mi WSW 8.1 mph - N/A   Clear
3:35 AM 42.8 °F 38.6 °F 42.8 °F 100% 29.90 in 10.0 mi WSW 6.9 mph - N/A   Clear
3:55 AM 44.6 °F 40.2 °F 44.6 °F 100% 29.90 in 10.0 mi SW 8.1 mph - N/A   Partly Cloudy
4:15 AM 44.6 °F 42.2 °F 44.6 °F 100% 29.89 in 10.0 mi SW 4.6 mph - N/A   Scattered Clouds
4:35 AM 44.6 °F 42.2 °F 44.6 °F 100% 29.89 in 10.0 mi SSW 4.6 mph - N/A   Mostly Cloudy
4:55 AM 44.6 °F 43.1 °F 44.6 °F 100% 29.89 in 10.0 mi WSW 3.5 mph - N/A   Scattered Clouds
5:15 AM 46.4 °F 44.3 °F 46.4 °F 100% 29.88 in 10.0 mi WSW 4.6 mph - N/A   Partly Cloudy
5:55 AM 46.4 °F 44.3 °F 44.6 °F 93% 29.87 in 10.0 mi WSW 4.6 mph - N/A   Clear
6:15 AM 46.4 °F 43.5 °F 44.6 °F 93% 29.86 in 10.0 mi West 5.8 mph - N/A   Clear
6:35 AM 46.4 °F - 44.6 °F 93% 29.86 in 10.0 mi Calm Calm - N/A   Clear
6:55 AM 46.4 °F 44.3 °F 44.6 °F 93% 29.86 in 10.0 mi SW 4.6 mph - N/A   Clear
7:15 AM 46.4 °F - 44.6 °F 93% 29.86 in 10.0 mi Calm Calm - N/A   Clear
7:35 AM 44.6 °F 40.7 °F 42.8 °F 93% 29.86 in 10.0 mi SSW 6.9 mph - N/A   Clear
7:55 AM 44.6 °F 40.2 °F 44.6 °F 100% 29.86 in 10.0 mi South 8.1 mph - N/A   Clear
4:35 PM 60.8 °F - 48.2 °F 63% 29.57 in 9.0 mi SE 11.5 mph - N/A   Overcast
4:55 PM 62.6 °F - 48.2 °F 59% 29.56 in 10.0 mi SE 11.5 mph - N/A   Scattered Clouds
5:15 PM 64.4 °F - 48.2 °F 56% 29.56 in 9.0 mi South 15.0 mph 21.9 mph N/A   Partly Cloudy
5:35 PM 64.4 °F - 48.2 °F 56% 29.55 in 10.0 mi South 11.5 mph 18.4 mph N/A   Partly Cloudy
5:55 PM 64.4 °F - 48.2 °F 56% 29.54 in 10.0 mi SSE 12.7 mph 21.9 mph N/A   Mostly Cloudy
6:15 PM 62.6 °F - 50.0 °F 63% 29.53 in 8.0 mi SSE 10.4 mph - N/A   Scattered Clouds
6:35 PM 62.6 °F - 50.0 °F 63% 29.52 in 6.0 mi SE 9.2 mph - N/A   Haze
6:55 PM 62.6 °F - 50.0 °F 63% 29.51 in 8.0 mi SSE 11.5 mph 17.3 mph N/A   Clear
7:15 PM 62.6 °F - 48.2 °F 59% 29.50 in 8.0 mi SSE 15.0 mph - N/A   Clear
7:35 PM 62.6 °F - 48.2 °F 59% 29.50 in 9.0 mi Variable 4.6 mph 13.8 mph N/A   Scattered Clouds
7:55 PM 62.6 °F - 48.2 °F 59% 29.49 in 10.0 mi SSE 9.2 mph - N/A   Overcast
8:15 PM 60.8 °F - 50.0 °F 68% 29.49 in 10.0 mi South 6.9 mph - N/A   Overcast
8:35 PM 60.8 °F - 50.0 °F 68% 29.51 in 10.0 mi West 9.2 mph 15.0 mph N/A   Overcast
8:55 PM 60.8 °F - 50.0 °F 68% 29.50 in 10.0 mi South 8.1 mph - N/A   Overcast
9:15 PM 59.0 °F - 50.0 °F 72% 29.50 in 10.0 mi SSW 8.1 mph - N/A   Overcast
9:35 PM 59.0 °F - 50.0 °F 72% 29.50 in 7.0 mi WSW 5.8 mph - N/A   Mostly Cloudy
9:55 PM 57.2 °F - 50.0 °F 77% 29.49 in 9.0 mi SW 5.8 mph - N/A   Mostly Cloudy
10:15 PM 57.2 °F - 50.0 °F 77% 29.50 in 9.0 mi SW 8.1 mph - N/A   Mostly Cloudy
10:35 PM 59.0 °F - 51.8 °F 77% 29.51 in 8.0 mi WSW 9.2 mph - N/A   Overcast
10:55 PM 59.0 °F - 51.8 °F 77% 29.52 in 8.0 mi WSW 10.4 mph - N/A   Overcast
11:15 PM 59.0 °F - 51.8 °F 77% 29.52 in 9.0 mi WSW 11.5 mph - N/A   Mostly Cloudy
11:35 PM 59.0 °F - 50.0 °F 72% 29.53 in 10.0 mi West 15.0 mph - N/A   Scattered Clouds
11:55 PM 59.0 °F - 50.0 °F 72% 29.54 in 10.0 mi West 9.2 mph - N/A   Mostly Cloudy